Location: Bittelbronn
(48.4454°N, 8.5870°E)
Time: 08:31:25
(UTC+00:00)

deb Kosmos-1275 - Pass Details

Date: 16 October 2024
Orbit: 884 x 986 km, 82.7° (Epoch: 03 November)

Event Time Altitude Azimuth Distance (km) Brightness Sun altitude
Exits shadow 21:32:46 12° 356° (N) 2,456 ? -45.8°
Drops below altitude 10° 21:33:16 10° 358° (N) 2,627 ? -45.8°
Sets 21:35:52 0° 5° (N) 3,558 ? -46.1°
